Location: Helsinki
(60.1699°N, 24.9384°E)
Time: 21:27:16
(UTC+02:00)

Transit 2A Rocket - Pass Details

Date: 27 September 2023
Orbit: 593 x 903 km, 66.7° (Epoch: 29 November)

Event Time Altitude Azimuth Distance (km) Brightness Sun altitude
Rises 22:35:56 0° 308° (NW) 3,039 9.5 -24.5°
Reaches altitude 10° 22:38:20 10° 307° (NW) 2,078 8.3 -24.7°
Enters shadow 22:42:42 74° 264° (W) 658 4.6 -25.0°
Maximum altitude 22:42:59 78° 223° (SW) 645 - -25.1°
Drops below altitude 10° 22:47:20 10° 137° (SE) 1,950 - -25.4°
Sets 22:49:32 0° 136° (SE) 2,835 - -25.6°
